Location: Aalen
(48.8330°N, 10.1000°E)
Time: 20:41:37
(UTC+02:00)

S-56A Canister/Altair - Pass Details

Date: 04 August 2021
Orbit: 632 x 2500 km, 38.9° (Epoch: 19 September)

Event Time Altitude Azimuth Distance (km) Brightness Sun altitude
Rises 13:25:55 0° 197° (SSW) 4,895 12.1 58.3°
Reaches altitude 10° 13:29:40 10° 184° (S) 4,191 12.0 58.3°
Maximum altitude 13:38:24 25° 136° (SE) 3,657 11.7 58.2°
Drops below altitude 10° 13:48:49 10° 90° (E) 5,101 11.8 57.9°
Sets 13:53:58 0° 79° (E) 6,180 12.0 57.7°
